Данлап

США     36°45′55″N   119°05′52″W
темп.,
°C
ветер,
м/с
пор.,
м/с
влажн.,
%
обл.,
%
осадки,
мм/ч
давл.,
гПа
погр.,
м
16 октября, сб
сб1623:00+12всв43200 0.0 102141
02:00+11всв43180 0.0 102135
05:00+11всв43180 0.0 102037
08:00+13всв33160 0.0 101950
11:00+21зюз32110 0.0 1017879
14:00+23зюз32110 0.0 10151229
17:00+20зюз21130 0.0 1015728
20:00+12всв43210 0.0 101738
17 октября, вс
вс1723:00+12всв43220 0.0 101742
02:00+11всв432131 0.0 101744
05:00+10всв44215 0.0 101549
08:00+12всв331991 0.0 101558
11:00+18юз3413100 0.0 10141485
14:00+19юз451328 0.0 10121880
17:00+16юз34170 0.0 10111647
20:00+8вюв32344 0.0 101433
18 октября, пн
пн1823:00+6вюв35530 0.0 101596
02:00+4вюв2164100 0.0 101615
05:00+5ююз126394 0.0 1015103
08:00+5с027187 0.0 1016195
11:00+10зюз32435 0.1 10141331
14:00+11зюз424338 0.0 10131511
17:00+10зюз21468 0.0 10131103
20:00+4всв22690 0.0 101618
19 октября, вт
вт1923:00+3всв32680 0.0 101826
02:00+4всв32520 0.0 101720
05:00+4всв32392 0.0 101621
08:00+7всв22260 0.0 101632
11:00+14зюз32230 0.0 1015663
14:00+16зюз32230 0.0 10141026
17:00+15зюз222745 0.0 1014619
20:00+8всв32425 0.0 101725
20 октября, ср
ср2023:00+8всв32353 0.0 101827
02:00+9всв332453 0.0 101839
05:00+8всв322391 0.0 101930
08:00+10всв322014 0.0 101937
11:00+17зюз211693 0.0 1018649
14:00+17зюз3121100 0.0 1018862
17:00+16зюз222639 0.0 1018420
20:00+10всв33344 0.0 102036